| time (UTC) | temp C | wind direction | speed KPH | gust KPH | rain 1hr cm | rain 24hr cm | rain mn cm | humidity % | barometer mb |
| 20260506144549 | 12 | 118 | 0.0 | 0.0 | 0.00 | 0.00 | 0.00 | 66 | 1012.3 |
| 20260506143045 | 10 | 101 | 0.0 | 1.6 | 0.00 | 0.00 | 0.00 | 77 | 1012.3 |
| 20260506141544 | 7 | 248 | 0.0 | 1.6 | 0.00 | 0.00 | 0.00 | 84 | 1012.4 |
| 20260506140040 | 6 | 248 | 0.0 | 0.0 | 0.00 | 0.00 | 0.00 | 88 | 1012.5 |
| 20260506134537 | 5 | 248 | 0.0 | 0.0 | 0.00 | 0.00 | 0.00 | 88 | 1012.4 |
| 20260506133046 | 3 | 248 | 0.0 | 0.0 | 0.00 | 0.00 | 0.00 | 88 | 1012.3 |
| 20260506131535 | 3 | 248 | 0.0 | 0.0 | 0.00 | 0.00 | 0.00 | 88 | 1012.1 |
| 20260506130033 | 3 | 248 | 0.0 | 0.0 | 0.00 | 0.00 | 0.00 | 87 | 1012.1 |
| 20260506124532 | 4 | 248 | 0.0 | 0.0 | 0.00 | 0.00 | 0.00 | 87 | 1012.1 |
| 20260506123030 | 4 | 248 | 0.0 | 0.0 | 0.00 | 0.00 | 0.00 | 87 | 1012.0 |
| 20260506121527 | 4 | 248 | 0.0 | 0.0 | 0.00 | 0.00 | 0.00 | 87 | 1011.9 |
| 20260506120047 | 4 | 248 | 0.0 | 0.0 | 0.00 | 0.00 | 0.00 | 86 | 1011.8 |
| 20260506114523 | 5 | 248 | 0.0 | 0.0 | 0.00 | 0.00 | 0.00 | 85 | 1011.7 |
| 20260506113021 | 5 | 248 | 0.0 | 0.0 | 0.00 | 0.00 | 0.00 | 85 | 1011.7 |
| 20260506111520 | 5 | 248 | 0.0 | 0.0 | 0.00 | 0.00 | 0.00 | 85 | 1011.5 |
| 20260506110018 | 5 | 248 | 0.0 | 0.0 | 0.00 | 0.00 | 0.00 | 84 | 1011.5 |
| 20260506104531 | 5 | 248 | 0.0 | 0.0 | 0.00 | 0.00 | 0.00 | 84 | 1011.5 |
| 20260506103034 | 5 | 248 | 0.0 | 0.0 | 0.00 | 0.00 | 0.00 | 83 | 1011.4 |
| 20260506101513 | 5 | 248 | 0.0 | 0.0 | 0.00 | 0.00 | 0.00 | 85 | 1011.2 |
| 20260506100011 | 5 | 248 | 0.0 | 0.0 | 0.00 | 0.00 | 0.00 | 84 | 1011.1 |
| 20260506094511 | 5 | 248 | 0.0 | 0.0 | 0.00 | 0.00 | 0.00 | 84 | 1011.1 |
| 20260506093017 | 5 | 248 | 0.0 | 0.0 | 0.00 | 0.00 | 0.00 | 83 | 1011.0 |
| 20260506091505 | 5 | 248 | 0.0 | 0.0 | 0.00 | 0.00 | 0.00 | 81 | 1010.8 |
| 20260506090001 | 5 | 248 | 0.0 | 0.0 | 0.00 | 0.00 | 0.00 | 81 | 1010.8 |
| 20260506084635 | 6 | 248 | 0.0 | 0.0 | 0.00 | 0.00 | 0.00 | 80 | 1010.7 |
| 20260506083057 | 6 | 248 | 0.0 | 0.0 | 0.00 | 0.00 | 0.00 | 80 | 1010.6 |
| 20260506081559 | 6 | 248 | 0.0 | 0.0 | 0.00 | 0.00 | 0.00 | 79 | 1010.4 |
| 20260506073048 | 7 | 248 | 0.0 | 0.0 | 0.00 | 0.00 | 0.00 | 78 | 1010.3 |
| 20260506071545 | 7 | 248 | 0.0 | 0.0 | 0.00 | 0.00 | 0.00 | 75 | 1010.3 |
| 20260506061541 | 9 | 248 | 0.0 | 0.0 | 0.00 | 0.00 | 0.00 | 72 | 1010.0 |
| 20260506044539 | 12 | 248 | 0.0 | 0.0 | 0.00 | 0.00 | 0.00 | 63 | 1009.4 |
| 20260506043043 | 13 | 248 | 0.0 | 0.0 | 0.00 | 0.00 | 0.00 | 61 | 1009.4 |
| 20260506041536 | 14 | 248 | 0.0 | 0.0 | 0.00 | 0.00 | 0.00 | 58 | 1009.3 |
| 20260506040038 | 15 | 248 | 0.0 | 0.0 | 0.00 | 0.00 | 0.00 | 55 | 1009.2 |
| 20260506034535 | 16 | 248 | 0.0 | 0.0 | 0.00 | 0.00 | 0.00 | 52 | 1009.1 |
| 20260506033035 | 16 | 248 | 0.0 | 0.0 | 0.00 | 0.00 | 0.00 | 52 | 1008.9 |
| 20260506031540 | 18 | 249 | 0.0 | 0.0 | 0.00 | 0.00 | 0.00 | 44 | 1008.8 |
| 20260506030034 | 19 | 248 | 0.0 | 0.0 | 0.00 | 0.00 | 0.00 | 42 | 1008.7 |
| 20260506024536 | 21 | 249 | 0.0 | 0.0 | 0.00 | 0.00 | 0.00 | 35 | 1008.6 |
| 20260506023050 | 22 | 248 | 0.0 | 1.6 | 0.00 | 0.00 | 0.00 | 35 | 1008.6 |
| 20260506021555 | 23 | 248 | 0.0 | 0.0 | 0.00 | 0.00 | 0.00 | 29 | 1008.7 |
| 20260506020029 | 25 | 248 | 0.0 | 1.6 | 0.00 | 0.00 | 0.00 | 26 | 1008.7 |
| 20260506014530 | 25 | 17 | 0.0 | 1.6 | 0.00 | 0.00 | 0.00 | 23 | 1008.8 |
| 20260506013033 | 26 | 148 | 0.0 | 0.0 | 0.00 | 0.00 | 0.00 | 24 | 1008.8 |
| 20260506011526 | 26 | 109 | 0.0 | 3.2 | 0.00 | 0.00 | 0.00 | 21 | 1008.9 |
| 20260506010026 | 27 | 178 | 0.0 | 1.6 | 0.00 | 0.00 | 0.00 | 22 | 1009.0 |
| 20260506004527 | 27 | 233 | 0.0 | 6.4 | 0.00 | 0.00 | 0.00 | 22 | 1009.1 |
| 20260506003022 | 27 | 193 | 0.0 | 3.2 | 0.00 | 0.00 | 0.00 | 20 | 1009.2 |
| 20260506001521 | 27 | 117 | 0.0 | 3.2 | 0.00 | 0.00 | 0.00 | 19 | 1009.3 |
| 20260506000021 | 27 | 111 | 1.6 | 9.7 | 0.00 | 0.00 | 0.00 | 20 | 1009.5 |
| 20260505234516 | 27 | 115 | 0.0 | 4.8 | 0.00 | 0.00 | 0.00 | 19 | 1009.7 |
| 20260505233014 | 27 | 279 | 0.0 | 4.8 | 0.00 | 0.00 | 0.00 | 19 | 1009.9 |
| 20260505231529 | 28 | 75 | 0.0 | 3.2 | 0.00 | 0.00 | 0.00 | 20 | 1010.0 |
| 20260505230020 | 28 | 352 | 1.6 | 4.8 | 0.00 | 0.00 | 0.00 | 18 | 1010.3 |
| 20260505224512 | 28 | 105 | 1.6 | 6.4 | 0.00 | 0.00 | 0.00 | 17 | 1010.5 |
| 20260505223005 | 28 | 106 | 0.0 | 4.8 | 0.00 | 0.00 | 0.00 | 18 | 1010.6 |
| 20260505221502 | 27 | 287 | 0.0 | 3.2 | 0.00 | 0.00 | 0.00 | 20 | 1010.9 |
| 20260505214600 | 27 | 105 | 0.0 | 4.8 | 0.00 | 0.00 | 0.00 | 18 | 1011.3 |
| 20260505213054 | 27 | 117 | 1.6 | 8.0 | 0.00 | 0.00 | 0.00 | 20 | 1011.4 |
| 20260505211554 | 26 | 93 | 1.6 | 8.0 | 0.00 | 0.00 | 0.00 | 20 | 1011.7 |
| 20260505210053 | 26 | 105 | 1.6 | 6.4 | 0.00 | 0.00 | 0.00 | 21 | 1011.9 |
| 20260505204548 | 26 | 136 | 1.6 | 6.4 | 0.00 | 0.00 | 0.00 | 21 | 1012.1 |
| 20260505203106 | 26 | 119 | 1.6 | 4.8 | 0.00 | 0.00 | 0.00 | 22 | 1012.3 |
| 20260505201549 | 26 | 270 | 1.6 | 4.8 | 0.00 | 0.00 | 0.00 | 21 | 1012.4 |
| 20260505200049 | 26 | 146 | 1.6 | 6.4 | 0.00 | 0.00 | 0.00 | 22 | 1012.7 |
| 20260505194540 | 25 | 107 | 0.0 | 4.8 | 0.00 | 0.00 | 0.00 | 23 | 1012.9 |
| 20260505193038 | 25 | 226 | 0.0 | 4.8 | 0.00 | 0.00 | 0.00 | 24 | 1013.0 |
| 20260505191536 | 24 | 98 | 0.0 | 4.8 | 0.00 | 0.00 | 0.00 | 26 | 1013.1 |
| 20260505190038 | 23 | 357 | 1.6 | 4.8 | 0.00 | 0.00 | 0.00 | 28 | 1013.2 |
| 20260505184534 | 23 | 82 | 1.6 | 6.4 | 0.00 | 0.00 | 0.00 | 28 | 1013.6 |
| 20260505183027 | 22 | 90 | 0.0 | 6.4 | 0.00 | 0.00 | 0.00 | 28 | 1013.6 |
| 20260505181522 | 22 | 347 | 1.6 | 8.0 | 0.00 | 0.00 | 0.00 | 31 | 1013.9 |
| 20260505180021 | 21 | 346 | 1.6 | 4.8 | 0.00 | 0.00 | 0.00 | 31 | 1014.0 |
| 20260505174527 | 21 | 91 | 1.6 | 4.8 | 0.00 | 0.00 | 0.00 | 33 | 1014.1 |
| 20260505173014 | 20 | 318 | 1.6 | 6.4 | 0.00 | 0.00 | 0.00 | 34 | 1014.2 |
| 20260505171510 | 20 | 93 | 1.6 | 6.4 | 0.00 | 0.00 | 0.00 | 35 | 1014.3 |
| 20260505170015 | 19 | 274 | 1.6 | 4.8 | 0.00 | 0.00 | 0.00 | 38 | 1014.4 |
| 20260505164504 | 18 | 347 | 0.0 | 3.2 | 0.00 | 0.00 | 0.00 | 40 | 1014.4 |
| 20260505163103 | 18 | 342 | 0.0 | 1.6 | 0.00 | 0.00 | 0.00 | 43 | 1014.5 |
| 20260505161615 | 17 | 71 | 0.0 | 4.8 | 0.00 | 0.00 | 0.00 | 45 | 1014.6 |
| 20260505153100 | 16 | 115 | 0.0 | 1.6 | 0.00 | 0.00 | 0.00 | 49 | 1014.7 |
| 20260505151558 | 15 | 275 | 0.0 | 1.6 | 0.00 | 0.00 | 0.00 | 51 | 1014.7 |